Location: Pasarilla del Rebollar
(40.6790°N, 5.0062°W)
Time: 12:10:41
(UTC+00:00)

SL-08 RB Rocket - Pass Details

Date: 22 April 2026
Orbit: 631 x 666 km, 97.8° (Epoch: 15 May)

Event Time Altitude Azimuth Distance (km) Brightness Sun altitude
Rises 04:42:16 0° 7° (N) 2,939 7.5 -9.5°
Reaches altitude 10° 04:44:30 10° 4° (N) 2,030 6.6 -9.1°
Maximum altitude 04:48:49 56° 286° (WNW) 765 3.8 -8.4°
Drops below altitude 10° 04:53:09 10° 209° (SSW) 2,032 5.7 -7.6°
Enters shadow 04:55:14 - 205° (SSW) 2,886 6.5 -7.2°
